Date String (YYYY-MM-DD hh:mm:ss) UTC,Instrument flags,absolute air pressure of the measurement (hPa),sample flow rate (lpm),inlet stack bypass flow (lpm),air temperature of the measurement (°C),ambient temperature measured by the external sensor (°C),aerosol sample conditioner tube jacket temperature (°C),OPC LED temperature (°C),internal box temperature (°C),relative humidity of the measurement (%),span deviation,mass concentration of particles derived from Lorenz-Mie calculation of OPC scattering (μg/m³),mass concentration of particles derived from Lorenz-Mie calculation of OPC scattering (μg/m³),mass concentration of particles derived from Lorenz-Mie calculation of OPC scattering (μg/m³)
DateTimeUTC,F1_M11,P_M11,Q1_M11,Q2_M11,T1_M11,T2_M11,T3_M11,T4_M11,T5_M11,U1_M11,ZSPAN_M11,X0_M11,X2_M11,X1_M11
2023-06-12 19:00:00,SystemResetWarning,0829.4,5.00,000.00,030.2,028.6,000.0,038.7,031.7,26.7,0000.0,0007.52,0003.42,0002.05
2023-06-12 19:01:00,SystemResetWarning,0829.4,5.00,000.00,030.2,028.6,000.0,038.8,031.7,26.6,0000.0,0007.82,0003.47,0002.06
2023-06-12 19:02:00,SystemResetWarning,0829.4,5.00,000.00,030.2,028.6,000.0,038.8,031.7,26.9,0000.0,0008.51,0003.61,0002.10
2023-06-12 19:03:00,SystemResetWarning,0829.5,5.01,000.00,030.2,028.6,000.0,038.8,031.6,27.1,0000.0,0008.63,0003.68,0002.14
2023-06-12 19:04:00,SystemResetWarning,0829.5,5.00,000.00,030.2,028.6,000.0,038.8,031.5,27.3,0000.0,0008.94,0003.65,0002.14
2023-06-12 19:05:00,SystemResetWarning,0829.4,5.00,000.00,030.1,028.5,000.0,038.8,031.5,27.7,0000.0,0009.83,0003.77,0002.17
2023-06-12 19:06:00,SystemResetWarning,0829.3,5.00,000.00,030.1,028.5,000.0,038.8,031.5,27.6,0000.0,0010.30,0003.94,0002.21
2023-06-12 19:07:00,SystemResetWarning,0829.3,5.00,000.00,030.1,028.5,000.0,038.7,031.5,27.3,0000.0,0010.27,0004.01,0002.24
2023-06-12 19:08:00,SystemResetWarning,0829.2,5.00,000.00,030.1,028.5,000.0,038.7,031.5,26.8,0000.0,0010.33,0004.02,0002.25
2023-06-12 19:09:00,SystemResetWarning,0829.2,5.00,000.00,030.1,028.4,000.0,038.7,031.5,26.6,0000.0,0010.49,0004.03,0002.26
2023-06-12 19:10:00,SystemResetWarning,0829.1,5.00,000.00,030.1,028.4,000.0,038.7,031.5,26.6,0000.0,0010.79,0004.05,0002.26
2023-06-12 19:11:00,SystemResetWarning,0829.1,4.98,000.00,030.1,028.5,000.0,038.8,031.5,26.8,0000.0,0010.89,0004.08,0002.29
2023-06-12 19:12:00,SystemResetWarning,0829.1,4.99,000.00,030.1,028.5,000.0,038.7,031.5,26.8,0000.0,0011.04,0004.11,0002.31
2023-06-12 19:13:00,SystemResetWarning,0829.1,5.01,000.00,030.1,028.5,000.0,038.7,031.5,26.8,0000.0,0010.52,0004.04,0002.29
2023-06-12 19:14:00,SystemResetWarning,0829.2,5.01,000.00,030.1,028.5,000.0,038.7,031.6,26.8,0000.0,0010.70,0003.87,0002.27
2023-06-12 19:15:00,SystemResetWarning,0829.2,5.00,000.00,030.1,028.5,000.0,038.7,031.6,26.7,0000.0,0010.22,0003.75,0002.25
2023-06-12 19:16:00,SystemResetWarning,0829.3,5.00,000.00,030.1,028.5,000.0,038.7,031.6,26.9,0000.0,0009.28,0003.58,0002.20
2023-06-12 19:17:00,SystemResetWarning,0829.3,5.00,000.00,030.1,028.5,000.0,038.7,031.6,27.1,0000.0,0008.73,0003.34,0002.17
2023-06-12 19:18:00,SystemResetWarning,0829.4,5.00,000.00,030.1,028.5,000.0,038.7,031.5,27.0,0000.0,0008.44,0003.24,0002.17
2023-06-12 19:19:00,SystemResetWarning,0829.5,5.00,000.00,030.1,028.5,000.0,038.7,031.6,27.1,0000.0,0008.25,0003.20,0002.17
2023-06-12 19:20:00,SystemResetWarning,0829.6,4.99,000.00,030.1,028.5,000.0,038.7,031.6,27.4,0000.0,0008.12,0003.23,0002.19
2023-06-12 19:21:00,SystemResetWarning,0829.6,5.00,000.00,030.1,028.5,000.0,038.7,031.6,27.6,0000.0,0008.44,0003.31,0002.23
2023-06-12 19:22:00,SystemResetWarning,0829.6,5.00,000.00,030.1,028.5,000.0,038.7,031.6,27.6,0000.0,0008.65,0003.32,0002.25
2023-06-12 19:23:00,SystemResetWarning,0829.6,5.00,000.00,030.1,028.5,000.0,038.7,031.6,27.5,0000.0,0008.58,0003.32,0002.27
2023-06-12 19:24:00,SystemResetWarning,0829.6,5.00,000.00,030.1,028.5,000.0,038.7,031.6,27.4,0000.0,0008.43,0003.32,0002.31
2023-06-12 19:25:00,SystemResetWarning,0829.6,5.00,000.00,030.1,028.5,000.0,038.7,031.6,27.3,0000.0,0007.79,0003.31,0002.33
2023-06-12 19:26:00,SystemResetWarning,0829.6,5.01,000.00,030.1,028.5,000.0,038.7,031.7,27.4,0000.0,0008.33,0003.35,0002.37
2023-06-12 19:27:00,SystemResetWarning,0829.5,5.00,000.00,030.1,028.5,000.0,038.7,031.6,27.4,0000.0,0008.47,0003.41,0002.42
2023-06-12 19:28:00,SystemResetWarning,0829.5,5.00,000.00,030.1,028.5,000.0,038.7,031.6,27.4,0000.0,0008.75,0003.44,0002.45
2023-06-12 19:29:00,SystemResetWarning,0829.5,5.00,000.00,030.1,028.5,000.0,038.7,031.6,27.4,0000.0,0008.71,0003.43,0002.46
2023-06-12 19:30:00,SystemResetWarning,0829.5,5.01,000.00,030.1,028.5,000.0,038.7,031.6,27.5,0000.0,0008.81,0003.45,0002.46
2023-06-12 19:31:00,SystemResetWarning,0829.4,5.00,000.00,030.1,028.5,000.0,038.7,031.6,27.6,0000.0,0008.85,0003.47,0002.50
2023-06-12 19:32:00,SystemResetWarning,0829.4,5.00,000.00,030.1,028.5,000.0,038.7,031.6,27.7,0000.0,0008.41,0003.44,0002.56
2023-06-12 19:33:00,SystemResetWarning,0829.5,4.99,000.00,030.1,028.5,000.0,038.7,031.6,27.7,0000.0,0007.92,0003.42,0002.60
2023-06-12 19:34:00,SystemResetWarning,0829.5,4.99,000.00,030.1,028.5,000.0,038.7,031.6,27.6,0000.0,0007.86,0003.43,0002.66
2023-06-12 19:35:00,SystemResetWarning,0829.6,5.00,000.00,030.1,028.5,000.0,038.7,031.6,27.7,0000.0,0007.94,0003.45,0002.70
2023-06-12 19:36:00,SystemResetWarning,0829.6,5.00,000.00,030.1,028.5,000.0,038.7,031.6,27.8,0000.0,0008.15,0003.46,0002.70
2023-06-12 19:37:00,SystemResetWarning,0829.7,5.00,000.00,030.1,028.5,000.0,038.7,031.6,27.8,0000.0,0007.62,0003.44,0002.71
2023-06-12 19:38:00,SystemResetWarning,0829.7,5.00,000.00,030.1,028.5,000.0,038.7,031.6,27.9,0000.0,0007.30,0003.43,0002.71
2023-06-12 19:39:00,SystemResetWarning,0829.6,5.00,000.00,030.1,028.5,000.0,038.7,031.6,28.1,0000.0,0006.84,0003.46,0002.73
2023-06-12 19:40:00,SystemResetWarning,0829.7,5.00,000.00,030.1,028.5,000.0,038.7,031.6,28.2,0000.0,0007.06,0003.49,0002.74
2023-06-12 19:41:00,SystemResetWarning,0829.7,5.00,000.00,030.1,028.5,000.0,038.7,031.6,28.1,0000.0,0007.07,0003.47,0002.74
2023-06-12 19:42:00,SystemResetWarning,0829.6,5.00,000.00,030.1,028.5,000.0,038.7,031.6,27.4,0000.0,0007.13,0003.46,0002.71
2023-06-12 19:43:00,SystemResetWarning,0829.6,5.00,000.00,030.1,028.5,000.0,038.7,031.6,27.0,0000.0,0007.05,0003.39,0002.60
2023-06-12 19:44:00,SystemResetWarning,0829.6,5.01,000.00,030.1,028.5,000.0,038.7,031.6,27.1,0000.0,0007.86,0003.36,0002.56
2023-06-12 19:45:00,SystemResetWarning,0829.5,5.00,000.00,030.1,028.5,000.0,038.7,031.6,27.2,0000.0,0007.98,0003.36,0002.50
2023-06-12 19:46:00,SystemResetWarning,0829.4,5.01,000.00,030.1,028.5,000.0,038.7,031.5,27.4,0000.0,0008.05,0003.38,0002.47
2023-06-12 19:47:00,SystemResetWarning,0829.3,4.99,000.00,030.1,028.4,000.0,038.7,031.5,27.6,0000.0,0007.88,0003.41,0002.47
2023-06-12 19:48:00,SystemResetWarning,0829.3,4.99,000.00,030.1,028.4,000.0,038.7,031.4,27.7,0000.0,0008.02,0003.44,0002.50
2023-06-12 19:49:00,SystemResetWarning,0829.4,5.00,000.00,030.0,028.4,000.0,038.7,031.3,27.8,0000.0,0008.05,0003.46,0002.52
2023-06-12 19:50:00,SystemResetWarning,0829.4,4.99,000.00,030.0,028.3,000.0,038.7,031.3,27.7,0000.0,0007.91,0003.44,0002.51
2023-06-12 19:51:00,SystemResetWarning,0829.4,5.00,000.00,029.9,028.2,000.0,038.7,031.1,27.5,0000.0,0007.81,0003.42,0002.48
2023-06-12 19:52:00,SystemResetWarning,0829.4,5.00,000.00,029.9,028.2,000.0,038.7,031.1,27.6,0000.0,0007.83,0003.43,0002.47
2023-06-12 19:53:00,SystemResetWarning,0829.4,5.00,000.00,029.9,028.2,000.0,038.7,031.2,27.5,0000.0,0007.69,0003.39,0002.47
2023-06-12 19:54:00,SystemResetWarning,0829.5,5.01,000.00,029.9,028.2,000.0,038.6,031.2,27.6,0000.0,0007.68,0003.41,0002.48
2023-06-12 19:55:00,SystemResetWarning,0829.4,5.01,000.00,029.8,028.2,000.0,038.6,031.2,27.7,0000.0,0006.50,0003.37,0002.46
2023-06-12 19:56:00,SystemResetWarning,0829.5,5.00,000.00,029.8,028.2,000.0,038.6,031.2,27.7,0000.0,0006.17,0003.32,0002.42
2023-06-12 19:57:00,SystemResetWarning,0829.6,5.00,000.00,029.8,028.2,000.0,038.6,031.3,27.8,0000.0,0005.81,0003.24,0002.36
2023-06-12 19:58:00,SystemResetWarning,0829.6,4.99,000.00,029.9,028.2,000.0,038.6,031.3,27.8,0000.0,0005.44,0003.17,0002.29
2023-06-12 19:59:00,SystemResetWarning,0829.6,4.99,000.00,029.9,028.3,000.0,038.6,031.3,27.9,0000.0,0005.19,0003.12,0002.20
